ECMWFFLT1_925_temp_021.txt.gz
Temp
18 17 16 16 16 16 16 16 16 16 16 17 17 17 17 17 17 17 17 16 16 15 15 15 15 15 15 15 15 15 15 15 15 15 14 14 14 14 14 14 15 15 15 15 15 15 16 16 16 16 16 16 16 16 16 16 16 16 16 16 16 15 15
18 17 16 16 16 16 16 16 16 16 16 16 17 17 17 17 17 17 17 16 16 16 15 16 16 15 16 16 16 15 15 15 15 15 15 14 14 14 14 14 14 15 15 15 15 15 15 15 15 15 15 16 16 16 16 16 16 16 16 16 15 15 15
17 17 16 16 16 16 16 16 16 16 16 16 16 16 16 16 16 17 17 16 16 16 16 16 16 16 16 16 16 16 15 15 15 15 15 14 14 14 14 14 14 14 15 15 15 15 14 14 14 14 13 14 15 16 16 16 16 16 16 15 15 15 15
17 17 16 16 16 16 16 16 16 15 16 16 16 16 16 16 16 16 16 16 16 16 16 16 15 15 15 15 15 15 15 15 15 15 15 15 14 14 14 14 15 15 15 15 15 15 15 14 14 14 13 13 14 15 15 15 15 15 15 15 15 15 15
17 17 17 16 16 16 16 16 15 15 15 16 16 16 16 16 16 16 16 16 16 16 16 16 15 15 15 15 15 15 15 15 15 15 15 15 15 15 14 14 15 15 15 15 15 15 15 15 14 13 12 13 14 14 15 15 15 15 15 15 15 15 15
17 17 17 16 16 16 16 15 15 15 15 15 16 16 16 16 16 16 16 16 16 16 16 16 15 15 14 15 15 15 15 15 15 15 15 15 15 15 15 15 15 15 15 15 15 15 14 14 14 13 12 13 13 14 14 14 14 14 14 14 14 15 15
17 17 17 17 16 16 15 15 15 15 15 15 15 16 16 16 16 16 16 16 16 16 16 16 15 15 15 15 15 15 15 15 15 15 15 15 15 14 14 14 14 14 14 14 14 14 14 14 14 13 13 13 12 13 13 14 14 14 14 14 14 14 14
17 17 17 17 16 16 16 15 15 16 15 15 15 15 16 16 16 16 16 16 16 16 16 16 16 16 15 15 15 15 15 15 15 15 14 14 14 14 14 14 14 14 14 14 14 14 14 14 13 13 13 13 13 12 11 12 14 13 13 13 13 14 14
17 17 17 17 16 16 16 16 16 16 15 15 15 15 15 16 16 16 16 16 16 16 16 16 16 16 16 16 16 16 15 15 14 14 14 14 14 14 14 14 14 14 13 13 13 13 13 13 13 13 13 13 14 13 11 12 13 12 13 13 13 13 13
17 17 17 17 16 16 16 16 16 16 15 15 15 15 15 15 16 16 16 16 16 16 16 16 16 16 16 16 16 16 15 15 15 14 14 14 15 14 14 14 14 14 13 13 13 13 13 13 13 13 13 13 13 13 12 13 12 11 12 13 12 12 12
17 17 17 17 16 16 16 16 16 16 16 15 15 15 15 15 15 15 16 16 16 16 16 16 16 16 16 16 16 16 15 15 15 14 14 14 15 14 14 14 14 14 13 13 13 13 13 13 13 13 13 13 13 12 12 13 12 12 12 12 12 12 12
17 17 17 17 17 16 16 16 16 16 16 16 15 15 15 15 15 15 15 15 15 15 16 16 16 16 16 16 16 16 15 15 15 15 14 14 14 14 14 14 14 14 14 13 13 13 13 13 13 13 13 13 13 13 12 12 12 12 12 11 11 11 11
17 17 17 17 17 17 17 17 17 16 16 16 16 16 15 15 15 15 15 15 15 15 15 15 15 16 16 16 16 16 15 15 15 15 14 14 14 14 14 14 14 13 13 14 13 13 13 13 13 13 13 13 13 12 12 12 11 11 12 11 11 11 11
17 17 17 17 17 17 17 17 17 17 16 16 16 16 16 16 16 16 15 15 15 15 15 15 15 15 15 15 15 16 15 15 15 15 14 14 14 14 14 13 13 13 13 13 13 13 13 13 13 13 13 13 13 12 12 12 11 11 11 11 11 11 11
17 17 17 17 17 17 17 17 17 17 17 16 16 16 16 16 16 16 16 15 15 15 15 15 15 15 15 15 15 15 15 15 15 15 15 14 14 14 13 13 13 13 13 13 13 13 13 13 13 13 13 13 12 12 12 11 11 10 10 10 10 10 11
17 17 17 17 17 17 17 17 17 16 16 16 16 16 16 17 16 16 16 16 16 15 15 15 15 15 15 15 15 15 15 15 15 15 15 14 14 14 14 14 14 13 13 13 13 13 13 13 13 13 13 12 12 12 12 11 11 10 10 10 10 10 10
17 17 17 17 17 17 17 17 17 16 16 16 16 16 16 16 16 16 16 16 16 16 16 16 15 15 15 15 15 15 15 15 15 15 15 14 14 14 14 14 14 14 13 13 13 13 13 13 13 12 12 12 12 12 12 11 11 11 10 10 10 9 9
17 17 17 17 17 17 17 17 17 16 16 16 16 16 15 16 16 16 16 17 17 16 16 16 16 16 15 15 15 15 15 15 15 15 15 14 14 14 14 14 14 14 13 13 13 13 13 13 12 12 12 12 12 12 11 11 11 10 10 10 9 9 9
17 17 17 17 17 17 17 17 17 17 16 16 15 15 15 15 16 16 16 16 16 16 16 16 16 16 16 15 15 15 15 15 15 14 14 14 14 14 14 14 14 14 14 13 13 13 13 12 12 12 11 11 11 11 11 10 10 10 10 9 9 9 9
16 16 16 16 16 16 16 17 17 17 16 15 14 14 14 15 15 15 15 15 15 15 15 16 16 16 16 15 15 15 15 15 15 15 15 14 14 14 14 14 14 14 14 13 13 13 13 12 12 12 12 11 11 11 10 10 10 9 9 9 9 8 8
16 16 16 15 15 15 15 16 16 16 15 15 15 14 14 15 14 15 15 14 14 14 14 15 16 15 15 15 15 15 15 15 15 15 15 14 14 14 14 14 14 14 14 14 13 13 13 13 13 12 12 11 11 11 10 10 9 9 9 9 8 8 8
16 16 15 15 15 15 15 15 15 14 14 14 15 15 15 15 14 14 14 15 14 14 13 14 15 15 15 15 15 15 15 15 15 15 15 14 14 14 14 14 14 14 14 14 13 13 13 13 13 12 12 11 11 11 10 10 9 9 9 9 8 8 7
16 16 15 15 15 15 14 14 14 14 14 14 15 15 15 15 15 15 15 15 15 14 13 14 15 15 15 15 15 15 15 15 15 14 14 14 14 14 14 14 14 14 14 13 13 13 13 13 12 12 12 11 11 10 10 9 9 9 9 9 8 8 7
15 15 15 15 14 14 14 14 14 14 13 13 14 15 15 15 15 15 15 14 14 14 14 14 15 15 14 14 14 14 14 14 14 14 14 14 14 14 14 14 14 14 13 13 13 13 13 12 12 12 11 11 11 10 10 9 9 9 8 8 8 7 7
15 14 14 14 14 15 14 14 14 14 13 13 14 14 15 15 15 15 14 14 13 13 14 14 14 14 14 14 13 13 13 13 13 13 14 14 14 14 14 14 14 13 13 13 13 13 12 12 11 11 11 11 10 10 9 9 9 8 8 8 7 7 7
14 14 14 14 15 15 14 14 14 14 14 14 14 14 14 14 14 14 13 13 13 14 14 14 14 14 14 14 13 13 13 13 13 13 13 13 13 13 13 13 13 13 13 12 12 12 12 12 11 11 11 10 10 9 9 8 8 8 7 7 7 6 6
14 14 14 14 15 15 15 15 15 15 15 15 14 14 14 14 14 13 13 14 14 15 15 15 15 14 14 14 14 13 13 13 12 12 12 12 13 13 13 13 13 13 12 12 12 12 12 11 11 11 10 10 9 9 8 8 8 7 7 7 6 6 6
15 15 15 15 15 15 15 15 15 15 15 15 15 15 14 14 14 14 15 15 15 15 15 15 15 15 14 14 14 13 13 13 12 12 12 12 12 12 12 12 12 12 12 12 12 11 11 11 11 10 10 9 9 9 8 8 7 7 7 6 6 6 5
16 15 15 15 15 15 15 15 15 15 15 15 15 15 15 15 15 15 15 15 15 15 15 15 15 15 14 14 14 14 13 13 12 12 11 11 11 11 11 11 12 12 12 11 11 11 10 10 10 10 9 9 8 8 8 7 7 6 6 6 5 5 5
16 15 15 15 15 15 15 15 15 15 15 15 15 15 15 14 14 15 14 15 15 15 15 15 15 15 14 14 14 13 13 13 12 11 11 11 11 11 11 11 11 11 11 11 11 10 10 10 10 9 9 8 8 7 7 6 6 5 5 5 5 4 4
16 15 15 15 15 15 15 15 15 15 15 15 15 14 14 14 14 14 14 14 14 14 14 14 14 14 14 14 13 13 13 13 12 11 11 10 10 11 11 11 11 11 11 11 10 10 10 10 9 9 8 8 7 7 6 6 5 5 5 4 4 4 3
15 15 15 15 15 15 15 15 15 15 15 15 14 14 14 14 14 14 14 14 14 14 14 14 14 14 14 13 13 13 13 12 11 11 11 10 10 10 10 10 10 10 10 10 9 9 9 8 8 8 7 7 6 6 6 5 5 5 4 4 4 3 3
15 15 15 15 15 15 15 15 15 15 15 14 14 14 14 14 14 14 14 14 14 14 14 14 13 13 13 13 12 12 12 12 11 11 10 10 10 10 10 10 9 9 9 8 8 8 7 7 7 7 6 6 6 5 5 4 4 3 3 3 2 2 2
14 14 14 14 14 14 14 14 14 14 14 14 14 14 14 14 14 14 14 13 13 13 13 13 12 12 12 12 12 12 12 11 11 11 10 10 10 10 9 9 8 7 7 7 7 7 7 7 6 6 6 5 5 4 4 3 3 2 2 2 2 2 1
14 14 14 14 14 14 14 14 14 14 14 14 13 13 13 13 13 13 13 13 13 12 12 12 12 11 11 11 11 11 11 11 11 11 10 10 9 9 8 7 7 6 6 6 6 6 6 6 5 5 4 4 3 3 3 2 2 2 2 2 1 1 1
14 14 14 14 14 14 14 14 14 13 13 13 13 13 13 13 12 12 12 13 12 12 11 11 11 10 10 10 10 10 10 10 10 10 10 9 8 8 7 7 6 6 6 6 6 6 5 5 4 4 3 3 3 2 2 2 2 1 1 1 1 1 0
14 14 14 14 13 13 13 13 13 13 13 13 12 12 12 12 12 12 12 12 12 11 11 10 10 9 9 9 10 10 10 10 10 9 9 9 8 7 7 7 6 6 6 6 5 5 5 4 3 3 2 2 2 2 2 1 1 1 1 0 -0 -0 -0

ECMWFFLT1_925_temp_024.txt.gz
Temp
17 16 16 16 16 16 16 16 16 16 16 16 16 16 16 16 16 16 16 16 16 16 16 16 16 16 15 15 15 15 14 14 15 15 14 14 14 14 14 15 15 15 16 16 15 15 15 15 14 15 15 15 15 15 15 15 15 15 15 14 14 14 15
17 16 16 16 16 16 16 16 16 16 16 16 16 16 16 16 16 16 16 16 16 16 16 16 16 16 16 16 15 15 15 15 15 15 15 14 14 14 14 14 14 15 15 15 15 15 15 15 15 14 14 15 15 14 15 15 15 15 14 14 14 15 15
17 16 16 16 16 16 16 16 16 16 16 16 16 16 16 16 16 16 16 15 15 15 15 16 16 16 16 16 15 15 15 15 15 15 15 14 14 14 14 14 14 15 15 14 14 15 15 14 14 13 13 14 14 13 14 14 14 14 14 14 14 14 14
17 17 16 16 15 15 15 15 15 16 16 16 16 16 16 16 16 16 16 15 15 15 15 15 15 15 15 15 15 15 15 15 15 15 15 14 14 14 14 14 15 15 15 15 14 15 15 14 14 13 12 13 13 13 13 13 14 14 14 14 14 14 14
17 17 16 16 15 15 15 15 15 15 15 16 16 16 16 16 16 16 16 15 15 15 15 15 15 15 15 15 15 15 15 15 15 15 14 14 14 14 14 14 15 15 15 15 15 15 15 15 14 12 12 13 13 13 13 13 13 13 13 13 13 13 13
17 17 16 15 15 15 15 15 15 15 15 15 15 15 16 16 16 16 15 15 15 15 15 15 14 14 15 15 15 15 15 15 15 15 15 14 14 14 14 14 15 15 15 14 14 15 14 15 14 12 11 12 13 13 13 13 13 13 13 13 13 13 13
17 17 16 16 15 15 15 15 15 15 15 15 15 15 16 15 15 16 15 15 15 15 15 14 14 14 14 15 15 15 15 15 15 15 15 15 15 14 14 14 14 14 14 14 14 14 14 14 14 13 12 12 12 12 13 13 13 13 12 12 12 13 13
18 17 17 17 16 15 15 15 15 15 15 15 15 15 15 15 15 15 15 15 15 15 15 15 15 14 14 14 14 14 14 14 14 15 15 15 15 14 15 15 15 14 14 14 14 14 14 14 14 14 13 13 13 12 11 12 12 12 12 12 12 12 12
18 17 17 17 17 16 15 15 15 15 15 15 15 15 15 15 15 15 15 15 15 16 16 16 16 15 15 15 15 15 14 14 14 14 14 15 15 15 15 15 15 14 14 14 14 13 13 13 13 14 14 14 14 13 12 12 12 11 12 12 12 12 11
18 18 18 17 16 16 15 15 15 15 15 15 15 15 15 15 15 15 15 15 15 15 15 16 16 16 15 15 15 15 15 14 14 14 14 15 14 14 14 14 14 14 13 13 13 13 13 13 13 13 14 14 14 14 13 13 11 11 11 11 11 11 11
18 17 18 17 16 16 16 15 15 15 16 15 15 15 15 15 15 14 14 14 15 15 15 15 15 15 15 16 15 15 15 14 14 14 14 14 14 14 14 14 13 13 13 13 13 13 13 13 13 13 13 13 14 13 13 13 12 11 11 11 11 10 11
17 17 17 17 16 16 16 16 16 16 16 16 15 15 15 15 15 15 15 15 14 14 14 15 15 15 15 15 15 15 14 14 14 14 14 14 14 14 14 13 13 13 13 13 13 13 13 13 13 13 13 13 13 13 13 12 12 11 10 10 10 10 11
17 17 17 17 17 17 17 17 17 16 16 16 16 16 15 15 15 15 15 15 15 15 15 14 15 15 15 15 15 15 14 14 14 14 14 14 14 14 14 14 13 13 13 13 13 13 13 13 13 13 13 13 13 13 13 12 11 10 10 10 10 10 10
17 17 17 17 17 17 17 17 17 17 17 16 16 16 16 15 15 15 15 15 15 15 15 14 14 14 15 15 14 15 14 14 14 14 14 13 13 13 13 13 13 13 13 13 13 13 13 13 13 13 13 13 12 12 12 12 11 10 10 10 10 10 10
16 16 16 17 17 17 17 17 17 17 17 17 16 16 16 16 15 15 15 15 15 15 15 15 14 14 14 15 14 14 14 14 14 14 14 14 13 13 13 13 13 13 13 13 13 13 13 13 13 13 12 12 12 12 12 12 11 10 10 10 10 10 10
16 16 16 16 17 17 17 17 17 17 17 17 16 16 16 16 16 16 15 15 15 15 15 15 15 15 15 15 14 14 14 14 14 14 14 14 14 13 13 13 13 13 13 13 13 13 13 13 13 13 12 12 12 12 12 12 11 11 10 9 9 9 10
15 15 16 16 17 17 17 17 17 18 17 17 17 17 16 16 16 16 15 15 15 15 15 15 14 14 14 14 14 14 14 14 14 14 14 14 14 14 14 13 13 13 13 13 13 13 13 13 13 13 12 12 12 12 12 12 12 11 10 10 9 9 9
15 15 15 16 17 17 17 16 17 18 17 17 17 17 16 16 16 16 15 15 15 15 15 15 14 14 14 14 14 14 14 14 14 14 14 14 14 14 14 14 13 13 13 13 13 13 13 13 13 13 12 12 12 12 12 12 11 11 11 10 9 9 9
15 15 15 16 17 17 17 16 17 17 17 17 17 17 16 16 16 16 16 15 15 14 15 15 15 15 15 14 14 14 13 14 14 14 14 14 14 14 14 14 13 13 13 13 13 13 13 13 13 12 12 12 12 11 11 11 11 11 11 10 10 9 9
15 15 16 16 17 17 17 16 16 16 16 17 17 17 16 16 15 15 15 15 15 15 15 15 15 15 15 15 14 14 13 13 14 14 14 14 14 14 14 14 14 13 13 13 13 13 13 13 12 12 12 11 11 11 11 11 11 10 10 10 9 9 9
16 16 16 16 16 16 16 16 16 16 16 16 16 16 16 16 15 15 15 15 15 15 14 14 14 14 15 15 14 14 13 13 13 13 14 14 14 14 14 13 13 13 13 13 13 13 13 13 13 12 12 11 11 11 11 11 10 10 10 9 9 9 8
15 15 15 15 15 15 15 15 15 15 15 15 15 15 15 15 15 15 15 15 15 14 13 13 14 14 14 14 14 14 13 13 13 13 14 14 14 14 14 13 13 13 13 13 13 13 13 13 13 12 12 11 11 11 11 11 10 10 10 9 9 8 8
14 14 14 14 14 15 15 15 15 15 15 15 15 14 15 15 15 15 14 14 14 13 13 13 14 14 14 14 14 14 13 12 13 13 13 14 14 14 14 13 13 13 12 12 12 12 12 12 12 12 12 12 11 11 11 10 10 10 9 9 9 8 8
14 14 14 14 14 14 15 15 15 15 15 15 14 14 14 14 15 15 14 14 14 14 14 14 14 14 14 13 13 13 13 13 13 13 13 13 13 14 14 13 13 13 13 12 12 12 12 12 12 12 12 11 11 10 10 10 9 9 9 8 8 8 7
14 14 14 14 14 14 14 14 14 14 14 14 13 13 14 14 15 14 14 14 14 14 14 14 14 14 14 13 13 13 13 13 13 13 13 13 13 13 13 13 13 12 12 13 13 13 12 12 12 11 11 11 10 10 10 10 9 9 8 8 8 7 7
14 14 14 14 14 14 14 14 13 14 13 13 13 13 14 14 15 14 14 14 14 14 14 14 14 14 13 13 13 13 13 13 13 13 13 13 13 13 13 13 13 12 12 12 13 12 12 12 12 11 11 10 10 10 10 9 9 9 8 8 7 7 6
14 14 14 13 13 13 13 13 13 14 13 13 13 13 14 14 14 14 14 14 14 14 14 14 14 14 14 14 13 13 13 13 13 13 13 13 13 13 12 12 12 12 12 12 12 12 12 12 11 11 10 10 10 9 9 9 8 8 8 7 7 6 6
14 14 14 13 13 13 13 13 14 14 14 13 13 13 13 13 13 13 13 13 14 14 14 14 14 14 14 14 14 14 14 13 13 13 13 13 13 12 12 12 12 12 12 11 12 12 12 12 11 11 10 9 9 9 8 8 8 7 7 6 6 6 5
15 14 14 14 14 14 14 14 14 14 14 14 13 13 13 13 13 14 14 14 14 14 14 14 14 14 14 14 14 14 13 13 13 13 13 12 12 12 12 12 11 11 11 11 11 11 11 11 11 10 9 9 8 8 7 7 7 6 6 6 6 5 5
15 15 14 14 14 14 14 14 14 14 14 14 13 13 14 14 14 14 14 14 14 14 14 14 14 14 14 14 13 13 13 13 13 13 13 12 11 11 11 11 11 11 10 10 11 11 11 11 10 9 9 8 8 7 7 6 6 5 5 5 5 5 4
15 15 15 15 15 14 14 14 14 14 14 14 14 14 14 14 14 14 14 14 14 14 14 14 14 14 14 14 13 13 13 13 13 13 12 11 11 10 10 10 10 10 10 10 10 10 10 10 9 9 8 8 7 7 6 6 5 5 5 5 4 4 4
15 15 15 15 15 14 14 14 14 14 14 14 14 14 14 14 14 14 14 14 14 14 14 14 14 14 14 14 13 13 12 12 12 12 12 11 10 10 10 10 9 9 10 10 10 10 9 9 8 8 8 8 7 6 6 5 5 5 4 4 4 3 3
14 14 14 14 14 14 14 14 14 14 14 14 14 14 13 14 14 13 13 13 13 13 13 13 13 13 13 13 13 12 12 12 12 12 11 10 10 10 9 9 9 9 9 9 9 8 8 8 8 8 7 7 6 6 5 5 4 4 3 3 3 2 2
14 14 14 14 14 14 14 14 14 14 14 13 13 13 13 13 13 13 13 13 13 13 13 13 13 13 13 13 12 12 12 11 11 11 10 10 9 9 9 9 8 8 8 8 8 8 8 7 7 7 7 6 5 5 4 3 3 3 2 2 2 2 1
13 14 14 14 14 14 14 14 14 13 13 13 13 13 13 13 13 13 13 13 13 13 12 12 12 12 12 12 11 11 11 11 11 11 10 9 9 9 8 8 7 7 7 7 7 7 7 7 6 6 6 5 4 4 3 3 2 2 2 1 1 1 1
13 13 13 14 14 14 14 14 14 13 13 13 13 13 13 13 13 13 13 12 12 12 12 11 11 11 11 11 11 10 10 10 10 10 10 9 8 8 7 7 7 6 6 7 6 6 6 6 5 5 4 4 3 3 2 2 2 1 1 1 1 0 0
12 12 13 13 13 13 13 13 13 13 13 13 13 13 13 13 13 12 12 12 12 11 11 11 11 11 10 10 10 10 10 10 10 9 9 9 8 7 7 7 6 6 6 6 5 5 5 4 4 3 3 2 2 2 2 1 1 1 0 0 -0 -0 -1

ECMWFFLT1_925_temp_030.txt.gz
Temp
19 18 18 18 17 17 17 17 17 17 17 17 17 17 17 17 16 16 16 16 17 17 17 17 16 17 17 17 16 17 17 17 17 18 18 17 17 17 16 16 16 17 16 17 16 16 18 18 17 18 17 16 16 16 17 17 16 16 16 17 17 16 16
19 18 18 17 17 17 17 17 17 17 17 17 16 17 17 17 16 16 16 16 17 17 17 17 17 16 16 16 16 16 16 16 16 17 17 17 17 17 17 17 17 17 17 17 17 18 20 19 18 18 17 16 16 16 16 16 16 16 16 16 17 17 16
18 18 18 17 17 17 17 17 17 17 17 17 16 16 16 16 16 16 16 16 16 17 17 17 16 16 16 16 16 16 16 16 16 16 16 17 17 17 17 17 17 17 18 18 19 19 20 20 19 18 18 18 17 16 16 16 16 16 16 16 16 16 16
18 18 18 17 17 18 17 17 17 17 17 17 16 16 16 16 16 16 16 16 16 16 16 16 16 16 16 16 16 16 16 16 15 15 16 16 16 16 17 17 17 18 18 19 19 20 20 20 19 19 19 19 18 17 16 17 17 17 17 17 16 16 16
18 18 18 18 18 18 18 17 17 17 17 17 16 16 16 16 16 16 16 16 16 16 16 16 16 16 16 16 16 16 16 16 15 15 15 16 16 16 17 17 17 18 18 18 19 20 20 20 19 19 20 19 19 18 17 17 17 17 17 17 17 16 16
18 18 18 18 18 18 18 17 17 17 17 17 17 16 16 16 16 16 16 16 16 15 15 16 16 16 16 16 16 16 16 16 15 16 16 16 16 17 17 17 17 18 18 18 19 19 19 19 19 20 20 19 19 19 18 17 18 17 17 17 17 16 16
18 18 18 18 18 18 18 17 17 18 17 17 16 16 16 15 15 15 15 15 15 15 15 15 15 15 16 17 16 16 16 16 16 16 16 16 16 16 17 17 18 18 18 18 18 19 19 19 19 20 20 19 19 19 19 19 18 18 17 16 16 16 15
18 18 18 18 17 17 17 17 17 17 17 17 16 16 15 15 15 15 15 15 15 15 15 15 15 15 16 16 16 15 15 15 15 16 16 16 16 16 16 17 17 17 17 18 18 19 19 19 19 19 20 19 19 19 20 19 19 18 17 16 16 15 15
18 18 18 17 17 17 17 17 17 17 17 16 16 15 15 15 15 15 15 15 15 15 15 15 15 15 15 16 16 15 15 15 15 15 15 15 15 15 16 16 17 17 17 17 17 18 18 18 19 19 19 20 19 19 19 19 19 18 17 17 16 15 14
18 17 17 17 16 16 16 17 17 16 16 16 16 15 15 15 15 15 15 15 15 15 15 15 15 15 15 15 15 15 15 15 15 15 15 15 15 15 15 16 17 17 16 16 17 17 17 17 18 18 19 20 20 20 19 18 18 18 17 17 17 16 14
17 17 17 16 16 16 16 16 16 16 16 16 16 15 15 15 15 15 15 15 15 15 15 15 15 15 15 15 15 15 15 15 15 15 15 15 15 15 15 16 16 16 16 16 16 16 16 17 17 18 18 19 19 20 20 19 18 17 17 16 16 15 14
17 16 17 16 16 16 16 16 16 16 16 16 16 16 16 16 15 16 16 15 15 15 15 15 15 15 15 15 15 15 15 15 15 15 15 15 15 15 15 15 16 16 15 16 16 16 16 17 17 18 18 18 18 18 19 19 18 16 16 16 15 14 14
17 16 16 16 16 16 16 16 16 16 16 16 16 16 16 16 16 16 16 15 15 15 15 15 15 15 15 15 16 16 15 15 16 15 15 15 15 15 15 15 16 15 16 16 16 16 16 16 17 17 17 17 17 17 18 19 18 16 15 15 14 14 13
16 16 16 16 16 16 16 16 16 16 16 16 16 16 16 16 16 16 16 16 16 16 15 15 15 15 16 15 16 15 15 16 16 16 15 15 15 16 16 16 15 15 16 16 16 16 16 16 16 17 17 17 17 17 17 18 18 16 15 14 14 14 13
16 16 16 16 17 17 16 16 16 16 16 16 16 16 16 16 16 16 16 16 16 16 16 16 15 16 16 15 15 15 15 16 16 16 16 16 16 16 16 16 16 15 15 16 16 17 17 17 17 17 17 17 17 17 17 18 18 17 16 14 14 14 13
16 16 16 16 17 17 17 16 16 16 16 16 16 16 16 16 16 16 16 16 16 16 16 16 15 16 16 15 15 15 15 16 16 16 16 16 16 16 15 16 15 15 15 15 16 16 16 16 17 17 16 16 16 16 16 17 17 17 16 15 15 15 14
16 16 16 17 17 17 17 16 16 16 16 16 16 16 16 16 16 16 16 16 16 16 16 16 15 16 16 16 16 15 15 16 16 16 16 16 16 16 16 16 15 15 15 15 15 15 15 16 16 16 16 16 15 15 15 15 16 17 16 16 15 15 15
16 16 16 17 17 17 17 16 16 16 17 16 16 16 16 16 16 16 16 17 17 16 16 16 16 16 15 15 16 16 16 15 15 16 16 16 16 16 15 15 15 15 15 15 15 15 15 15 16 16 16 16 16 15 14 15 15 16 16 16 15 14 14
16 15 16 17 17 17 17 16 16 16 17 17 16 16 16 16 16 17 17 17 17 17 16 16 16 16 16 15 15 15 15 15 15 15 15 15 15 15 15 15 15 15 15 15 15 15 15 14 15 15 15 15 16 15 14 15 15 15 15 16 15 14 14
16 16 16 16 16 17 17 16 16 16 17 17 16 16 16 16 16 16 17 17 17 17 16 16 16 16 16 15 15 15 15 15 15 15 15 15 15 15 15 15 15 15 15 15 15 14 14 14 14 14 14 14 14 14 14 15 15 15 15 15 15 15 14
16 16 16 16 16 16 16 16 16 16 16 16 16 16 16 16 15 15 16 16 16 16 16 16 16 16 16 16 15 15 15 15 15 15 15 15 15 15 15 15 15 15 14 14 14 14 14 13 13 13 13 13 13 14 14 14 14 15 15 15 15 15 15
16 16 16 16 16 16 16 16 16 16 16 16 16 16 16 16 15 15 15 15 15 15 15 16 16 15 16 15 15 15 15 15 15 15 15 15 15 15 15 15 15 15 14 14 14 13 13 13 13 13 12 13 13 13 14 14 14 15 15 15 16 15 15
16 16 16 16 16 16 16 16 15 16 16 16 16 16 16 15 15 15 15 15 15 15 15 15 15 15 15 15 15 15 14 14 15 15 15 15 15 15 15 15 14 14 14 13 13 13 13 13 13 13 13 13 13 13 13 14 14 15 15 15 15 15 14
15 16 16 16 16 16 16 16 15 15 16 15 15 15 15 15 15 15 15 15 15 15 14 15 15 15 15 15 15 14 14 14 14 14 14 15 15 15 15 15 14 13 13 13 13 13 12 12 12 12 12 12 12 13 13 13 14 14 14 14 14 13 13
16 16 15 15 15 15 15 15 15 15 15 15 15 14 14 15 15 15 15 15 15 15 15 15 15 15 15 15 14 14 14 14 14 14 14 14 15 15 15 15 14 13 13 13 12 12 12 12 12 11 11 11 11 12 12 12 13 13 13 13 13 12 12
16 15 15 15 15 15 15 15 15 15 15 14 14 14 14 14 14 14 14 15 14 14 14 14 14 14 15 14 14 14 14 14 14 14 14 14 14 14 14 14 14 13 13 12 12 12 12 11 11 11 11 11 11 11 11 11 11 12 11 11 11 12 11
16 15 15 15 15 15 15 15 14 14 14 13 13 13 14 14 14 14 14 14 14 14 14 14 13 14 14 14 14 14 14 13 13 13 14 14 14 14 14 14 14 14 13 12 12 13 12 11 11 11 10 10 10 10 10 10 10 10 10 10 10 11 10
16 16 15 15 15 15 15 15 14 14 14 13 13 13 14 13 13 13 14 14 14 14 13 13 13 13 13 13 13 13 13 13 13 14 14 14 14 14 14 14 14 14 13 13 12 12 12 11 10 10 10 10 9 9 9 9 9 9 9 9 9 9 8
15 15 15 15 15 15 15 15 14 14 13 13 12 13 13 13 13 13 13 13 13 14 13 13 13 13 13 13 13 13 13 13 13 14 14 13 13 13 13 13 14 14 14 13 12 12 11 10 10 10 10 10 9 9 9 9 9 9 9 9 8 8 8
15 15 15 15 15 15 15 15 14 14 13 13 13 13 13 14 13 13 13 13 13 13 13 13 13 13 13 13 13 13 13 14 15 14 13 13 13 12 12 13 13 13 13 12 12 11 11 10 11 11 10 10 9 8 9 9 9 8 8 8 8 8 7
15 15 15 15 15 15 15 15 15 14 14 14 14 14 14 13 13 13 13 12 13 13 13 13 13 13 13 14 14 14 15 15 15 14 13 13 13 12 12 12 12 12 12 12 12 12 11 10 11 11 10 10 9 9 8 8 8 8 7 7 7 7 7
14 14 15 15 14 14 14 15 15 14 14 14 14 13 13 13 13 13 13 13 13 13 13 13 14 14 14 14 14 14 15 15 15 14 14 13 12 12 12 12 12 12 12 12 12 11 11 10 11 11 10 10 10 9 8 7 7 7 7 7 6 6 6
13 14 14 14 14 14 14 15 15 14 15 15 15 14 13 13 13 13 13 13 13 13 13 14 14 14 14 14 14 14 15 15 15 14 14 13 13 12 11 11 11 11 12 12 11 10 10 10 10 10 10 11 10 9 8 7 7 7 7 6 6 6 6
13 13 13 14 14 13 14 14 14 15 15 16 15 15 14 14 14 13 13 13 13 14 14 14 14 14 14 14 14 14 14 15 15 14 14 13 13 12 11 10 11 11 11 11 10 10 10 9 10 10 10 10 9 8 7 7 6 6 6 6 6 7 7
12 12 12 13 13 13 14 14 14 14 15 15 15 14 14 14 14 14 13 13 13 14 14 14 14 14 14 14 14 14 14 14 14 14 14 13 13 12 10 9 10 10 10 10 10 9 9 9 9 9 9 8 8 7 7 7 7 7 7 7 7 7 7
11 11 12 12 13 13 14 14 13 14 14 14 14 14 14 14 14 13 13 13 12 13 13 13 13 13 13 13 13 13 13 13 12 13 13 13 12 11 9 9 9 9 8 9 9 8 8 8 8 8 8 7 7 7 7 6 6 7 7 7 7 7 7
11 11 12 12 12 13 13 13 13 14 14 14 14 14 14 14 14 13 13 12 12 12 13 13 13 13 13 13 12 12 12 11 11 12 12 12 11 10 9 9 9 8 8 8 8 7 7 7 7 7 7 6 6 6 6 6 6 6 7 7 7 7 7

ECMWFFLT1_925_temp_033.txt.gz
Temp
21 20 20 20 20 19 19 19 19 19 19 19 18 19 18 18 18 18 18 18 19 19 19 18 18 18 18 18 17 17 17 17 17 17 17 18 18 18 18 17 17 17 17 17 18 18 17 17 18 18 18 18 18 18 18 18 18 18 18 19 18 18 17
20 20 20 20 19 19 19 19 19 19 19 18 18 18 18 18 18 18 18 18 18 19 19 18 18 18 18 18 17 17 17 17 17 17 17 18 18 17 18 18 17 17 17 17 17 18 18 18 18 18 18 18 18 18 18 18 18 18 18 18 18 18 17
20 20 20 19 19 19 19 19 19 19 18 18 18 18 18 18 18 18 18 18 18 18 18 18 18 18 17 17 17 17 17 17 17 17 17 17 17 17 18 18 19 19 17 17 17 17 17 18 18 19 19 19 18 18 18 18 18 18 18 18 18 18 17
20 20 20 19 19 19 19 19 19 19 19 18 18 18 18 18 18 18 18 18 18 18 18 18 18 18 18 17 17 17 17 17 17 17 17 17 17 18 18 18 19 18 17 17 17 16 17 17 18 19 19 19 19 18 18 19 19 19 18 18 18 18 17
20 20 20 19 19 19 19 19 19 19 19 18 18 18 17 17 18 18 18 18 18 17 18 18 18 18 18 17 17 17 17 17 17 17 17 17 17 18 18 17 18 18 17 17 16 16 17 17 18 20 20 20 20 19 19 19 19 19 19 19 18 18 17
20 20 20 20 20 20 19 19 19 19 19 18 18 18 17 17 17 17 18 17 17 17 17 17 18 18 18 18 17 17 17 17 17 17 17 17 17 18 18 18 18 18 18 18 18 17 17 17 19 20 21 21 20 20 19 19 20 19 19 19 18 18 17
20 20 20 20 20 20 20 19 19 19 19 18 18 17 17 17 17 17 17 17 17 17 17 17 17 18 18 18 18 17 17 17 17 17 17 17 17 18 18 18 19 19 19 19 19 19 19 19 20 21 21 21 20 21 21 20 20 20 19 19 18 18 17
19 20 20 20 19 19 19 19 19 19 19 18 18 17 17 17 17 16 16 16 16 16 17 17 17 17 18 18 17 17 17 17 17 17 17 17 17 18 18 19 19 19 19 20 20 20 20 20 20 21 21 20 20 21 21 21 20 20 19 18 18 17 16
19 20 20 19 19 19 19 19 19 19 18 18 17 17 17 17 17 17 17 16 16 17 17 17 17 17 17 17 17 17 17 17 17 17 17 17 17 17 18 18 19 19 19 19 19 19 20 20 20 21 21 21 21 21 21 21 20 20 19 19 18 17 16
19 20 19 19 19 18 18 18 18 18 18 17 17 17 17 17 17 17 17 17 16 17 17 17 17 17 17 17 17 17 17 17 17 17 17 17 17 17 18 18 19 18 18 18 18 19 19 19 20 20 20 21 21 21 20 19 19 19 19 19 18 17 16
19 19 19 18 18 18 18 18 18 18 18 17 17 17 17 17 17 17 17 17 17 17 17 17 17 17 17 17 17 17 17 17 17 17 17 17 17 17 18 18 18 18 18 18 18 18 19 19 19 20 20 20 20 21 21 20 19 19 18 18 18 17 17
19 18 18 18 18 18 18 18 18 18 17 17 17 17 17 17 17 17 17 17 17 17 17 17 17 17 17 17 17 17 17 17 17 17 17 17 17 17 17 17 18 18 18 18 18 18 18 19 19 19 19 19 19 20 21 20 18 18 18 17 17 17 16
18 18 18 17 17 17 18 18 18 18 17 17 17 17 18 18 17 17 17 17 17 17 17 17 17 17 17 17 17 17 17 17 17 17 17 17 17 17 17 18 18 18 18 18 18 18 18 18 19 19 19 19 19 19 20 20 18 17 17 17 17 16 16
18 18 18 17 17 17 18 18 18 17 18 18 18 18 18 18 18 18 17 17 17 17 17 17 17 17 17 17 17 17 17 18 18 18 17 18 18 18 18 18 17 17 18 18 18 18 18 18 18 19 19 19 19 19 19 19 18 17 16 16 17 17 16
17 17 17 17 17 17 18 18 17 17 18 18 18 18 18 18 18 18 18 18 18 17 17 17 17 17 17 17 17 17 18 18 18 17 18 18 18 18 18 18 17 17 17 18 18 19 19 19 19 19 19 19 19 19 19 19 19 18 17 16 16 16 16
18 17 17 17 18 18 18 18 18 17 18 18 18 18 18 18 18 18 18 18 18 18 18 17 17 17 17 17 17 17 17 18 17 17 18 18 18 17 17 17 17 17 17 17 18 18 18 19 19 19 18 18 18 18 18 18 18 18 18 17 17 17 16
18 17 17 17 18 18 18 18 18 18 18 18 18 18 18 18 18 18 18 18 18 18 18 17 17 17 17 17 17 17 17 17 17 17 18 18 18 17 17 17 17 17 17 17 17 18 18 18 18 18 18 18 17 17 17 17 18 18 18 18 17 17 17
17 17 17 17 18 18 18 18 18 18 18 18 18 18 18 18 18 18 18 18 18 18 18 18 18 18 17 17 17 17 17 17 17 17 18 18 18 17 17 17 17 17 17 17 17 17 17 17 18 18 18 18 18 17 16 17 17 17 18 18 17 16 16
17 17 17 17 17 18 18 18 18 18 18 18 18 18 18 18 18 18 18 19 19 18 18 18 18 18 17 17 17 17 17 17 17 17 17 17 17 17 17 17 17 17 17 17 17 17 17 17 17 17 17 17 17 16 16 16 17 17 17 17 17 17 16
17 17 17 17 17 17 18 18 18 18 18 18 18 18 18 18 18 19 19 19 19 19 18 18 18 18 18 17 17 17 17 17 17 17 17 17 17 17 17 17 17 16 16 16 16 16 16 16 15 16 16 16 15 15 15 16 17 16 16 17 17 17 17
17 17 17 17 17 17 18 17 17 18 18 18 18 18 18 18 18 18 19 19 19 19 18 18 18 18 18 18 17 17 17 17 17 17 17 17 17 17 17 17 17 16 16 16 16 16 16 15 15 15 15 15 15 15 15 16 16 16 16 17 17 17 17
17 16 16 16 16 16 17 17 17 17 18 18 18 18 18 18 18 18 18 18 18 18 18 18 18 18 18 18 17 17 17 17 17 17 16 16 16 16 16 16 16 16 16 16 16 16 15 15 15 15 15 14 15 15 15 16 16 16 17 17 17 17 17
16 16 16 16 15 16 16 17 17 17 17 18 18 18 18 18 18 18 18 18 18 18 18 18 18 17 18 17 17 17 16 16 16 16 16 16 16 16 16 16 16 16 16 15 15 15 15 14 15 15 14 14 15 15 15 15 15 16 16 16 16 17 17
17 17 16 16 16 16 17 16 16 16 17 17 17 18 18 18 18 18 18 18 17 17 17 17 17 17 17 17 17 16 16 16 16 16 16 16 16 16 15 15 15 15 15 15 15 15 14 14 14 14 14 14 14 14 14 15 15 15 15 15 16 16 16
17 17 17 17 16 17 17 16 16 16 16 16 16 17 17 17 17 17 17 17 17 17 16 16 16 16 16 16 16 16 16 15 15 15 15 15 15 15 14 14 14 13 13 13 14 14 14 13 13 13 13 13 13 14 14 14 14 14 14 15 15 15 15
17 17 17 17 16 16 16 16 16 16 16 15 15 15 16 16 16 17 17 17 17 16 15 15 15 15 15 16 16 15 15 16 15 15 15 15 15 14 13 14 14 13 13 13 13 13 13 13 13 13 12 12 13 13 13 13 13 13 13 13 13 13 13
18 17 17 17 16 16 16 16 16 16 16 15 15 15 15 15 15 16 16 16 16 16 15 15 15 15 15 15 15 15 15 15 15 15 14 14 14 13 13 13 14 13 13 12 12 13 13 13 13 12 12 12 12 12 12 12 12 12 12 12 12 12 12
17 17 17 17 17 17 16 16 16 15 15 15 15 15 15 15 15 15 15 15 15 15 15 15 15 14 14 14 14 14 14 14 14 14 14 14 14 13 13 14 13 13 12 12 13 13 13 12 12 12 12 11 11 11 11 11 11 11 11 11 11 11 10
17 17 17 17 17 17 17 16 16 16 15 15 15 15 15 14 15 15 15 15 14 14 14 14 14 14 14 14 14 14 14 14 14 14 13 14 14 14 14 14 14 14 14 13 13 13 13 12 12 12 11 11 11 11 10 10 10 10 11 11 10 10 10
17 17 17 17 17 17 17 17 16 16 15 15 15 15 15 15 15 15 15 15 15 15 14 14 14 14 14 13 13 13 13 13 14 14 13 14 14 14 14 14 15 15 15 14 13 13 13 13 12 12 12 12 11 10 10 10 10 10 10 10 10 10 9
16 16 17 17 17 17 17 17 17 16 16 15 15 15 15 15 15 15 15 15 15 15 14 14 14 13 13 13 13 13 13 13 14 14 13 14 14 14 14 14 14 15 14 13 13 13 13 12 13 13 12 12 11 11 9 9 10 10 10 10 9 9 9
15 15 16 16 16 16 16 17 17 17 16 16 16 16 16 16 15 15 15 14 14 14 13 13 13 13 13 13 13 13 13 14 15 14 14 14 14 13 13 13 13 13 13 13 13 12 12 12 13 13 12 12 12 11 10 9 9 9 9 9 9 9 8
15 15 15 15 15 15 16 16 16 17 16 16 17 16 16 16 15 15 14 14 14 13 13 13 14 13 13 13 13 14 14 15 16 15 15 15 14 13 12 12 12 12 13 12 12 12 12 12 12 13 13 12 13 12 10 9 9 9 9 9 9 8 8
14 14 14 14 14 15 15 16 16 16 16 16 17 16 15 15 14 14 14 14 13 13 13 14 14 14 14 14 14 14 14 15 16 16 16 15 15 14 13 12 12 12 12 12 12 11 11 11 12 12 12 12 12 11 10 9 9 9 9 9 9 9 9
13 13 13 13 14 14 14 15 15 16 16 16 16 16 15 14 14 14 14 14 14 14 13 14 14 14 14 14 14 14 14 14 15 16 16 15 15 14 13 11 12 12 11 11 11 11 11 11 11 11 11 11 11 10 10 9 9 9 9 9 10 10 10
12 13 13 13 13 14 14 14 15 15 16 16 16 16 15 14 15 15 15 15 15 14 13 14 14 14 14 14 14 14 14 14 14 15 15 15 15 14 12 11 11 11 11 11 10 10 10 10 10 10 10 10 10 9 9 9 9 9 9 10 10 10 10
12 12 13 13 13 13 14 14 14 15 15 15 16 16 15 15 16 15 15 15 15 14 13 14 14 14 14 14 14 14 14 14 14 14 15 15 14 12 11 11 11 11 10 10 10 10 10 9 9 9 9 9 9 9 9 9 9 9 9 9 9 9 9